Dewpoint
-13 -8 -1 1 0 1 1 -2 -5 -5 1 8 11 13 13 13 13 15 13 12 12 7 4 4 3 4 3 1 -2 -4 -5 -1 5 7 8 7 5 1 1 3 4 4 5 5 6 6 6 6 6
-14 -5 -1 -1 1 3 1 -4 0 3 3 6 12 12 13 14 13 14 13 12 12 4 4 4 5 6 5 4 1 -1 -2 -3 -2 2 3 4 3 0 0 2 3 3 4 5 5 6 6 6 5
-10 -5 -2 -1 0 1 -1 -7 3 4 3 2 11 13 14 14 13 14 13 13 10 2 5 6 6 7 7 5 4 3 1 0 0 1 1 1 2 2 2 2 2 3 3 3 4 5 5 5 5
-5 -5 -3 -2 -2 -4 -6 -8 -1 3 3 2 11 16 16 15 14 14 14 14 11 4 7 7 7 8 7 6 6 5 4 3 2 3 3 3 4 4 4 5 5 5 5 4 5 5 4 4 5
-3 -5 -4 -2 -2 -4 -7 -9 -8 -6 2 2 11 15 16 15 14 14 14 14 9 6 8 8 8 8 8 7 7 7 7 6 6 5 5 5 6 6 6 7 7 7 7 7 8 8 8 9 9
-5 -8 -4 -4 -5 -7 -10 -9 -8 -8 1 1 13 15 15 15 14 13 13 14 14 13 9 8 9 9 8 7 8 8 8 8 8 8 8 8 8 9 9 9 9 9 9 10 10 10 10 11 11
-5 -5 -5 -6 -8 -9 -11 -10 -7 -8 -7 0 12 15 15 15 14 14 14 14 14 14 12 9 9 9 8 8 8 8 8 8 8 9 9 10 10 10 11 11 11 11 12 12 12 12 12 12 12
-7 -6 -5 -7 -7 -9 -9 -7 -7 -7 -7 1 10 15 16 15 14 14 14 15 15 14 10 9 9 9 9 8 9 9 9 9 9 10 10 11 11 12 12 12 12 12 12 12 13 13 13 13 13
-11 -5 -4 -6 -8 -10 -10 -7 -7 -7 -7 9 10 11 13 15 15 15 15 15 15 14 10 9 9 9 9 9 9 10 10 10 11 11 12 12 13 13 13 13 12 12 12 12 12 12 12 11 11
-10 -5 -5 -8 -10 -9 -11 -11 -10 -9 -7 13 14 12 15 15 15 15 15 15 14 14 13 11 10 10 10 10 10 11 11 12 12 13 14 13 13 12 12 12 12 11 11 10 10 11 11 11 12
-9 -8 -7 -8 -9 -10 -11 -11 -11 -11 -7 9 14 15 15 15 15 15 14 14 15 14 15 15 11 11 11 11 12 12 12 11 12 13 13 12 12 12 11 11 9 8 8 8 8 9 10 10 10
-8 -10 -10 -11 -10 -10 -10 -11 -10 -10 -9 -4 9 7 14 14 15 15 15 14 14 15 15 14 14 14 11 11 11 11 11 10 10 12 12 12 12 11 11 10 9 8 6 5 2 2 2 3 3
-6 -8 -9 -9 -9 -9 -10 -10 -9 -9 -10 -9 9 12 13 14 14 14 15 15 14 14 14 14 14 14 14 12 11 9 3 -0 0 8 9 10 9 7 9 9 7 3 -1 -3 -5 -7 -8 -9 -9
-7 -7 -7 -8 -9 -9 -7 -9 -9 -9 -10 -10 10 12 12 13 14 14 14 15 14 14 13 14 14 13 13 11 11 8 0 -6 -4 0 4 6 5 4 3 1 -1 -4 -10 -13 -14 -15 -14 -15 -14
-4 -5 -6 -6 -8 -8 -9 -8 -7 -9 -9 -10 7 11 11 11 13 13 13 13 13 13 13 13 13 13 13 11 10 6 -1 -4 -5 -5 -3 1 -0 -1 -2 -4 -11 -13 -14 -13 -12 -12 -12 -13 -13
-2 -3 -3 -5 -6 -7 -9 -7 -8 -10 -10 -9 -7 11 10 11 13 12 12 11 13 13 13 12 13 13 13 11 9 3 -2 -4 -6 -5 -4 -3 -3 -4 -8 -13 -13 -12 -11 -11 -11 -12 -13 -13 -14
-1 -0 -2 -3 -5 -6 -8 -7 -9 -10 -10 -9 -10 -3 10 11 11 11 11 11 12 12 13 13 13 13 11 8 5 1 -2 -4 -5 -6 -5 -5 -8 -12 -12 -12 -10 -10 -10 -11 -11 -12 -13 -14 -15
2 1 -0 -1 -3 -6 -10 -9 -10 -11 -10 -9 -10 -10 -4 8 8 9 10 10 11 10 10 10 10 10 8 7 4 2 -0 -3 -5 -5 -7 -10 -12 -13 -12 -10 -10 -9 -10 -10 -11 -12 -13 -13 -15
1 1 1 -1 -3 -2 -2 -4 -7 -9 -9 -9 -9 -9 -6 -2 6 7 9 10 10 9 9 9 9 8 6 6 4 2 -0 -2 -4 -5 -9 -12 -12 -12 -11 -9 -9 -9 -9 -10 -11 -12 -13 -14 -15
1 2 2 -0 -1 -1 -1 -1 -3 -5 -8 -9 -8 -10 -9 -5 -2 7 9 9 9 9 9 8 8 7 6 5 4 1 -1 -2 -3 -7 -11 -12 -11 -11 -9 -8 -8 -8 -8 -9 -10 -12 -13 -14 -15
0 1 1 2 0 -1 -1 0 -1 -3 -4 -7 -8 -7 -10 -9 -7 5 8 8 8 8 8 8 8 7 6 4 2 1 -0 -1 -3 -9 -11 -11 -10 -9 -8 -8 -8 -8 -8 -9 -10 -12 -13 -14 -14
2 -0 2 2 3 4 1 6 1 -2 -2 -3 -5 -6 -8 -10 -9 3 7 7 7 7 7 7 7 7 6 3 3 2 0 -1 -3 -8 -9 -9 -8 -8 -7 -7 -7 -8 -8 -9 -11 -13 -14 -16 -17
4 2 3 3 4 4 3 4 2 -1 -1 -3 -3 -4 -6 -8 -8 4 7 6 6 6 7 7 7 7 5 4 4 3 1 -1 -4 -6 -6 -8 -8 -7 -7 -7 -7 -7 -8 -9 -12 -14 -16 -18 -18
1 1 2 3 4 7 4 3 2 1 1 2 0 1 1 -6 2 7 6 6 6 6 6 6 7 6 4 5 3 3 1 -2 -2 -2 -3 -7 -7 -7 -7 -7 -7 -8 -8 -10 -12 -15 -17 -18 -20
1 2 6 7 8 8 3 4 2 3 3 2 2 2 4 5 7 6 5 5 5 5 6 6 6 6 5 5 4 3 -0 -0 -1 -2 -3 -6 -7 -7 -7 -7 -8 -9 -10 -12 -14 -15 -18 -20 -21
3 2 7 10 8 6 3 6 4 3 2 2 3 3 3 5 5 5 5 5 5 5 5 5 6 5 5 4 3 3 2 0 -1 -2 -3 -6 -6 -6 -7 -7 -8 -10 -13 -15 -16 -18 -21 -21 -22
4 5 1 4 4 6 5 4 3 3 3 3 3 3 2 3 4 4 4 4 4 5 5 5 5 5 4 4 3 3 1 -0 -1 -1 -3 -4 -5 -6 -7 -8 -9 -11 -15 -19 -18 -19 -21 -17 -17
-0 -1 7 8 11 10 6 4 7 5 4 3 3 2 2 3 4 5 4 4 4 4 4 4 4 4 4 3 3 3 1 -0 -0 -1 -2 -2 -5 -8 -9 -9 -11 -13 -17 -20 -20 -20 -19 -21 -19
-3 -1 1 6 9 10 10 7 3 4 4 2 -0 -1 -1 1 3 3 4 4 3 3 3 3 3 3 3 2 2 2 1 0 -0 -0 -2 -4 -8 -7 -9 -9 -13 -16 -19 -21 -19 -20 -20 -22 -22
-1 2 3 5 6 6 6 7 1 1 1 1 0 -0 -1 -1 -2 2 3 3 3 3 3 3 2 2 1 1 1 1 0 -0 -1 -4 -6 -4 -2 -5 -7 -11 -14 -16 -18 -20 -20 -20 -20 -25 -24
Wind_Speed
11 6 5 8 3 3 5 9 3 8 5 20 28 27 18 13 3 7 25 24 23 26 27 24 20 18 17 16 16 16 15 15 15 14 13 11 9 8 7 6 5 5 4 3 2 1 2 2 3
9 3 4 4 3 2 6 6 7 7 12 29 32 23 13 9 19 29 29 25 21 27 26 23 21 18 16 15 15 15 14 13 13 13 12 10 8 7 7 6 5 4 3 2 2 1 0 2 3
8 7 4 4 4 6 6 6 6 8 15 11 9 25 13 14 19 14 22 22 22 27 24 22 20 18 16 14 14 13 12 13 11 12 11 9 8 6 6 5 5 3 2 2 2 2 2 2 3
7 4 6 1 10 15 11 12 5 6 10 7 20 10 11 13 16 22 21 16 22 27 24 22 20 17 15 14 12 12 12 12 10 10 9 9 7 6 6 5 4 4 4 3 4 5 4 4 5
10 5 2 4 9 16 16 27 11 3 8 11 15 6 7 17 25 27 21 22 22 24 23 22 20 18 16 14 13 12 11 10 9 9 9 8 7 6 6 5 5 5 5 6 6 7 7 6 6
8 3 2 5 11 15 9 17 6 1 9 11 15 12 8 23 31 28 25 25 18 18 20 22 20 19 17 15 14 13 12 11 10 10 9 9 8 7 8 8 7 7 7 8 8 9 9 9 9
4 2 6 7 10 18 19 26 7 1 5 7 29 6 18 27 30 27 25 23 19 15 16 23 21 20 18 16 15 14 13 12 11 10 9 9 9 9 9 9 8 7 7 8 8 9 9 9 9
10 3 8 5 12 15 17 7 8 3 4 4 27 10 11 33 32 29 24 21 17 15 21 23 20 19 17 16 15 14 13 12 12 11 10 10 9 8 6 4 4 5 5 6 6 7 7 6 6
19 1 8 8 11 10 15 9 12 11 7 12 8 25 32 35 34 30 27 22 18 15 21 22 20 19 17 16 15 14 14 12 11 11 11 10 7 3 2 3 3 3 4 4 4 4 5 7 7
7 4 9 11 10 8 9 12 19 8 9 14 25 22 42 36 34 35 31 26 21 19 19 22 22 20 18 17 17 16 15 13 12 10 7 4 4 4 2 3 4 6 7 7 7 9 9 8 6
10 9 9 18 23 17 9 9 17 12 5 13 32 38 42 40 35 32 31 29 27 22 22 19 21 21 19 19 19 17 15 14 13 12 10 9 8 8 7 6 9 8 9 8 9 10 10 11 11
8 21 18 24 22 14 4 9 11 16 12 13 24 28 39 38 37 35 33 30 28 27 25 23 21 18 19 18 17 15 14 13 13 13 13 13 12 12 10 10 10 7 8 8 9 8 8 8 9
7 7 18 19 17 21 16 8 9 23 25 16 24 32 34 36 35 32 30 27 26 25 22 26 23 21 16 16 17 16 15 13 13 15 14 15 13 11 13 13 10 7 6 6 6 7 8 8 9
16 24 22 25 21 23 12 9 11 23 24 22 21 30 31 34 35 33 34 35 31 26 22 21 25 21 20 22 22 20 18 14 13 15 15 14 13 11 10 8 5 4 4 2 3 4 6 7 8
18 12 14 14 18 11 27 10 9 24 20 25 18 29 28 28 32 33 33 37 38 32 28 24 31 29 28 27 25 22 20 16 13 13 13 13 12 11 8 6 6 5 2 2 5 7 9 10 11
7 6 6 10 13 23 12 17 14 26 24 26 20 31 29 29 33 31 29 34 41 37 34 31 34 34 31 30 27 26 22 18 15 14 14 14 13 11 8 7 5 2 1 2 4 6 7 9 10
6 5 11 13 19 12 11 9 14 24 19 29 29 25 36 35 32 34 32 35 40 37 35 34 33 31 31 29 27 25 22 19 17 16 15 14 12 10 9 8 5 1 2 3 5 7 8 9 9
5 7 9 11 17 7 5 6 9 18 16 15 22 29 30 38 38 37 35 39 43 38 35 31 29 27 28 27 26 23 22 20 18 17 16 14 13 12 10 8 5 3 2 3 4 5 6 8 9
16 18 20 18 12 4 6 6 9 16 20 14 17 25 32 38 38 40 39 45 45 41 36 31 27 26 27 26 25 25 23 21 18 16 16 16 15 13 11 10 8 5 2 2 4 5 7 8 8
18 20 22 13 7 11 11 10 9 8 10 21 23 27 20 32 29 39 46 49 44 42 36 31 28 27 26 24 22 21 21 19 16 16 17 18 16 15 13 10 7 3 1 2 3 4 6 8 9
18 13 11 8 7 12 13 18 8 9 17 22 32 31 36 33 27 40 49 47 43 41 37 32 28 23 21 20 18 19 19 19 18 18 20 19 18 15 12 9 6 3 3 2 3 3 5 6 6
18 13 10 8 6 6 4 12 3 9 12 14 25 33 36 42 37 38 51 47 43 39 34 30 26 21 19 21 23 25 23 20 16 20 19 19 17 15 11 8 6 4 3 2 2 3 4 4 3
19 14 10 8 8 7 3 7 4 7 9 14 14 25 37 46 44 45 54 51 43 38 34 28 23 19 21 24 25 27 22 15 19 21 18 18 16 14 10 8 6 5 4 3 2 2 2 3 2
8 4 8 5 3 14 8 6 2 3 8 12 17 32 19 27 39 44 48 45 40 33 27 23 19 17 25 22 25 23 19 23 24 21 18 18 16 13 11 9 8 6 5 5 4 3 2 1 1
5 3 2 3 5 8 9 9 9 7 11 13 15 27 37 28 34 36 41 38 31 27 24 20 17 17 25 25 21 18 19 22 25 21 19 17 15 13 10 8 7 6 6 6 4 2 3 1 1
12 9 5 5 5 5 4 5 4 7 11 18 26 31 38 28 26 27 26 24 21 21 22 24 22 22 25 25 23 19 20 24 24 22 19 17 13 11 10 8 8 7 6 4 4 3 2 2 3
23 11 15 12 7 3 4 3 3 4 10 16 19 27 28 29 22 19 16 16 19 24 24 25 26 23 20 21 24 23 22 23 23 21 20 17 13 11 10 10 8 6 6 5 4 4 3 2 3
4 3 4 3 4 5 4 4 3 7 6 10 10 15 20 18 17 9 9 12 16 18 21 22 24 24 20 22 24 27 25 23 23 21 21 18 15 13 12 10 9 7 8 8 6 4 4 3 3
2 1 3 6 3 1 2 1 4 10 8 8 8 16 16 12 14 15 14 11 11 15 19 19 20 22 23 23 24 26 28 26 25 23 22 18 15 13 12 10 10 9 9 8 6 5 6 5 5
2 4 5 2 4 4 2 2 3 9 9 11 9 9 9 8 4 8 13 13 17 19 17 17 18 22 23 24 24 24 25 24 23 22 20 16 14 13 14 12 11 10 9 9 8 8 6 6 9
Wind_Direction
322 315 341 303 31 82 271 270 225 259 56 84 82 91 88 51 69 153 156 172 168 169 160 158 154 152 147 142 138 136 138 145 150 147 151 150 144 137 135 138 139 137 133 131 127 97 57 25 18
331 4 302 280 114 315 274 254 224 88 90 97 96 100 66 64 111 128 139 156 160 168 163 160 159 158 153 148 141 140 140 146 148 149 152 153 151 145 141 147 148 150 150 154 169 195 299 328 334
329 320 306 156 195 210 244 302 258 96 94 94 99 89 94 110 125 136 157 151 167 167 164 164 162 163 157 155 151 145 150 146 154 152 155 160 158 154 155 160 163 169 189 203 235 257 268 286 300
344 305 257 140 261 268 256 272 213 125 122 137 117 78 94 127 151 152 152 164 181 167 167 168 169 166 162 163 157 156 160 154 163 158 165 167 168 173 176 180 189 199 220 234 253 267 279 288 297
308 268 267 252 262 270 279 281 258 152 155 170 108 97 83 121 140 147 150 171 155 162 170 174 173 168 169 169 169 171 166 167 174 176 176 181 185 190 202 211 223 226 240 256 262 270 282 283 287
295 205 297 272 277 284 284 304 179 110 166 184 106 108 128 139 142 148 164 165 169 164 174 178 173 173 173 177 179 176 178 183 185 191 192 198 203 209 217 225 234 242 253 261 269 275 280 285 288
225 54 249 262 282 297 296 303 129 215 330 223 137 88 144 150 150 164 170 173 180 192 191 180 177 178 178 181 182 183 187 192 193 201 204 208 214 219 227 231 235 247 258 264 270 277 284 290 294
265 137 272 276 283 287 319 344 34 32 294 161 149 139 175 159 157 168 175 181 189 203 185 182 179 182 183 180 182 188 190 198 198 203 208 214 219 225 238 249 247 247 257 269 278 283 291 298 302
268 244 264 260 266 267 350 357 348 326 349 57 96 142 161 161 165 169 172 178 184 193 183 182 182 185 185 183 183 188 190 197 199 203 208 207 214 209 230 249 245 249 259 267 267 266 265 265 267
200 197 229 248 254 284 325 344 322 335 284 86 93 122 152 159 167 169 170 176 184 181 182 184 185 184 186 186 188 191 193 192 192 187 190 161 177 246 249 263 245 239 242 248 252 254 253 260 252
265 242 235 264 277 303 301 321 310 319 294 174 141 149 164 170 173 170 177 182 182 183 187 192 187 184 190 191 190 188 190 189 184 175 168 175 177 202 204 229 229 239 252 264 268 272 272 275 272
290 280 263 267 282 306 283 300 313 308 294 287 186 179 169 172 175 180 182 183 189 194 195 192 187 189 187 189 182 186 194 198 194 191 185 182 194 195 199 218 246 267 285 285 288 293 285 285 289
293 287 311 313 313 300 275 263 261 292 292 308 191 173 173 177 179 183 184 188 186 189 195 191 187 179 180 181 183 194 207 200 195 195 205 207 214 220 220 233 255 272 279 289 299 302 306 302 297
286 301 297 298 296 296 287 266 243 265 283 288 177 180 181 184 183 186 186 189 188 193 189 188 185 175 188 190 196 204 206 209 192 195 204 208 218 229 228 234 241 250 247 254 279 300 306 309 306
316 307 300 290 282 263 267 281 248 245 261 274 194 185 186 192 188 194 195 193 191 191 186 189 180 186 191 198 204 208 208 207 196 197 203 202 210 210 215 212 206 208 214 334 344 337 336 330 319
308 296 279 270 255 257 219 247 246 247 242 246 246 183 188 191 193 199 207 197 189 189 196 190 183 188 197 205 207 206 207 203 200 198 200 198 205 208 192 186 192 201 344 348 334 328 324 315 324
242 248 270 279 257 243 200 225 225 235 240 228 239 206 190 192 196 200 203 201 193 196 195 194 198 202 203 206 207 205 204 200 198 198 196 198 198 191 176 178 187 217 341 333 334 335 333 336 342
224 242 252 247 280 314 208 216 218 220 250 247 241 228 204 196 200 199 201 203 197 199 204 203 204 204 205 203 200 198 202 202 200 196 193 191 193 190 184 189 194 217 263 322 338 339 335 339 354
248 264 273 271 279 298 267 272 263 234 231 241 258 225 212 205 205 200 197 193 189 190 197 201 204 204 205 202 197 197 199 201 202 195 190 190 192 192 191 197 199 200 211 336 351 347 340 347 4
242 249 262 276 317 322 309 282 268 258 232 233 241 234 216 209 205 193 184 184 187 185 191 196 203 208 208 211 209 208 206 202 203 194 190 190 191 195 195 199 207 212 252 316 340 350 348 358 12
258 262 268 261 287 293 301 290 295 281 272 245 237 238 226 211 212 184 176 178 181 183 187 194 196 203 208 206 201 202 207 207 200 192 197 190 192 193 194 195 203 230 260 306 327 348 349 359 5
253 260 286 301 305 264 44 293 282 275 277 272 258 243 224 216 212 190 178 179 182 182 187 193 195 202 204 190 199 210 217 213 204 207 193 191 190 193 190 196 214 235 254 285 312 329 336 353 1
273 284 281 283 294 314 127 292 132 236 260 277 344 263 228 213 205 185 181 180 181 182 188 194 198 198 194 195 212 211 225 226 215 204 198 193 193 191 190 201 220 231 244 248 258 296 313 326 328
336 337 316 285 264 263 158 209 326 300 343 30 22 27 39 186 177 166 167 171 169 173 182 191 196 182 187 197 202 213 227 208 209 205 207 200 192 191 196 206 218 228 233 239 244 264 282 292 288
250 357 303 299 213 251 189 221 244 62 39 45 41 38 43 106 131 148 160 163 166 174 179 185 187 185 191 203 216 220 214 225 220 215 214 207 197 198 201 205 216 227 238 236 243 250 258 258 239
235 197 189 215 224 284 38 249 115 101 66 59 54 55 56 80 106 135 149 159 172 181 184 185 179 191 200 203 211 201 215 214 213 223 225 216 209 208 207 215 222 222 228 240 245 273 263 274 233
228 214 225 254 297 303 240 97 273 91 65 57 54 60 61 67 89 120 149 168 179 184 183 181 186 193 198 201 205 203 205 205 211 214 222 221 213 212 217 213 217 217 227 234 237 239 238 210 254
118 95 47 71 208 212 254 207 157 104 116 70 54 56 77 86 98 114 124 169 182 188 187 189 195 203 206 204 203 206 206 204 209 217 220 218 215 211 214 213 213 210 208 219 225 215 214 212 255
85 242 226 140 154 242 307 75 89 61 62 78 62 50 42 71 113 150 183 192 212 210 209 206 204 212 213 210 210 213 213 213 218 221 222 219 211 214 222 212 211 202 202 209 220 213 216 228 256
57 37 27 135 195 219 135 228 96 111 103 82 56 37 23 23 45 123 169 200 213 214 207 209 208 210 217 220 225 223 223 225 224 218 208 211 217 219 222 216 211 207 207 211 213 218 232 253 256
Height
1510 1509 1508 1508 1519 1516 1518 1494 1472 1473 1464 1463 1460 1467 1487 1487 1489 1510 1504 1508 1511 1514 1517 1519 1523 1526 1528 1530 1532 1535 1537 1539 1541 1542 1545 1546 1547 1548 1549 1551 1552 1552 1553 1553 1554 1555 1555 1555 1556
1509 1508 1507 1506 1523 1530 1513 1481 1484 1467 1464 1464 1467 1474 1481 1497 1494 1498 1502 1507 1511 1514 1517 1519 1522 1526 1529 1531 1532 1534 1537 1540 1541 1542 1544 1546 1547 1549 1550 1551 1552 1552 1553 1553 1554 1555 1555 1555 1556
1509 1509 1509 1509 1517 1522 1509 1478 1477 1465 1464 1465 1473 1477 1486 1497 1500 1500 1502 1507 1510 1513 1516 1519 1522 1525 1528 1530 1532 1534 1537 1538 1541 1542 1544 1546 1547 1548 1549 1550 1551 1552 1552 1553 1553 1554 1555 1555 1555
1509 1509 1509 1513 1515 1493 1485 1477 1474 1467 1466 1467 1469 1482 1489 1493 1496 1498 1503 1507 1507 1513 1516 1519 1521 1524 1528 1530 1532 1534 1536 1538 1540 1541 1544 1545 1546 1547 1548 1549 1550 1551 1551 1552 1553 1553 1554 1555 1555
1510 1509 1515 1513 1504 1485 1478 1471 1470 1466 1464 1465 1468 1485 1491 1495 1499 1501 1503 1502 1507 1511 1515 1519 1521 1524 1527 1529 1531 1534 1536 1538 1540 1542 1543 1544 1545 1546 1548 1549 1549 1550 1550 1551 1552 1552 1553 1553 1554
1510 1506 1520 1524 1507 1484 1477 1472 1463 1463 1465 1465 1470 1481 1494 1497 1500 1502 1501 1503 1507 1511 1514 1518 1522 1523 1525 1528 1530 1532 1534 1536 1539 1541 1542 1543 1544 1545 1546 1548 1549 1549 1549 1550 1550 1551 1552 1552 1552
1509 1513 1518 1510 1506 1489 1472 1465 1461 1463 1465 1466 1467 1482 1492 1497 1499 1500 1501 1505 1509 1511 1513 1516 1520 1522 1523 1527 1529 1531 1533 1536 1537 1540 1541 1543 1544 1544 1545 1546 1547 1548 1548 1549 1549 1549 1550 1550 1550
1504 1508 1512 1504 1503 1495 1474 1465 1464 1463 1464 1464 1464 1478 1491 1494 1497 1498 1502 1504 1507 1510 1512 1516 1518 1522 1524 1525 1528 1531 1533 1536 1537 1539 1541 1542 1543 1543 1545 1546 1546 1546 1547 1548 1547 1547 1548 1548 1547
1500 1511 1513 1504 1497 1488 1476 1474 1469 1466 1466 1464 1468 1467 1479 1488 1493 1494 1499 1502 1506 1509 1511 1514 1517 1521 1524 1525 1527 1530 1532 1535 1536 1538 1540 1541 1542 1543 1544 1544 1544 1545 1545 1546 1545 1545 1544 1544 1544
1497 1505 1499 1486 1485 1483 1477 1476 1473 1469 1467 1474 1471 1473 1480 1486 1490 1490 1493 1498 1503 1506 1510 1512 1515 1519 1523 1525 1526 1528 1530 1532 1534 1537 1539 1541 1541 1542 1542 1543 1543 1542 1542 1543 1542 1541 1541 1542 1543
1489 1493 1485 1480 1478 1477 1474 1474 1472 1470 1469 1468 1470 1472 1476 1480 1486 1490 1492 1495 1500 1505 1508 1511 1513 1517 1522 1524 1525 1527 1528 1530 1531 1534 1537 1538 1539 1540 1540 1540 1540 1541 1541 1541 1541 1540 1540 1541 1541
1490 1480 1478 1475 1475 1474 1473 1471 1472 1470 1470 1465 1464 1464 1472 1477 1480 1485 1489 1494 1497 1502 1505 1509 1512 1515 1518 1521 1523 1524 1526 1528 1529 1531 1534 1535 1536 1537 1538 1537 1537 1539 1539 1540 1539 1539 1538 1538 1538
1485 1479 1476 1473 1470 1469 1468 1468 1469 1467 1465 1467 1465 1467 1471 1476 1478 1484 1488 1492 1494 1498 1502 1506 1510 1512 1516 1519 1520 1521 1522 1525 1527 1528 1530 1532 1533 1534 1535 1534 1536 1537 1537 1537 1537 1536 1536 1536 1534
1483 1478 1474 1470 1468 1467 1469 1466 1466 1464 1465 1465 1466 1467 1469 1473 1477 1482 1484 1485 1488 1492 1497 1502 1507 1510 1514 1516 1518 1519 1521 1522 1525 1526 1527 1530 1531 1531 1532 1533 1534 1534 1534 1534 1534 1534 1534 1534 1533
1482 1480 1472 1469 1466 1465 1464 1468 1464 1460 1462 1462 1464 1463 1468 1471 1476 1478 1483 1486 1483 1487 1491 1497 1502 1505 1507 1511 1514 1516 1518 1520 1523 1524 1525 1527 1528 1528 1530 1532 1532 1532 1532 1532 1531 1531 1531 1532 1531
1486 1480 1484 1464 1462 1457 1462 1469 1457 1456 1458 1459 1460 1462 1464 1469 1472 1476 1483 1485 1485 1484 1487 1492 1496 1501 1504 1507 1511 1512 1514 1516 1518 1520 1523 1524 1525 1526 1528 1529 1530 1529 1529 1530 1529 1529 1529 1527 1528
1486 1493 1482 1469 1452 1451 1452 1456 1449 1449 1450 1452 1454 1456 1457 1462 1467 1470 1474 1480 1483 1485 1487 1492 1496 1499 1501 1504 1507 1508 1511 1513 1515 1516 1518 1520 1522 1524 1525 1526 1527 1528 1529 1528 1527 1526 1525 1524 1524
1487 1484 1477 1474 1450 1445 1442 1446 1443 1442 1443 1444 1448 1448 1450 1453 1457 1463 1465 1470 1474 1480 1485 1490 1493 1498 1500 1502 1505 1507 1507 1509 1511 1513 1515 1516 1518 1520 1521 1522 1523 1525 1526 1526 1524 1523 1523 1523 1521
1474 1473 1469 1457 1449 1449 1447 1447 1444 1439 1439 1440 1440 1440 1442 1445 1449 1453 1457 1460 1464 1471 1476 1482 1488 1495 1500 1502 1503 1504 1505 1506 1508 1510 1513 1514 1515 1517 1519 1519 1520 1521 1522 1523 1523 1522 1521 1521 1521
1468 1469 1465 1453 1444 1446 1447 1445 1439 1438 1436 1433 1432 1435 1436 1440 1445 1448 1451 1452 1459 1464 1470 1476 1483 1488 1495 1502 1505 1506 1505 1506 1507 1508 1510 1511 1513 1514 1516 1516 1517 1519 1518 1519 1520 1520 1518 1519 1518
1460 1462 1460 1456 1446 1445 1446 1436 1438 1434 1430 1429 1426 1424 1428 1431 1436 1438 1444 1449 1454 1459 1464 1471 1479 1485 1492 1499 1503 1504 1505 1505 1505 1507 1507 1508 1510 1511 1513 1514 1515 1516 1517 1517 1517 1517 1516 1516 1516
1462 1450 1448 1450 1455 1470 1449 1452 1440 1431 1428 1425 1421 1417 1417 1422 1425 1429 1436 1443 1448 1455 1462 1468 1475 1481 1487 1492 1496 1499 1500 1503 1505 1505 1506 1507 1508 1509 1511 1512 1514 1515 1516 1516 1516 1515 1514 1513 1513
1451 1446 1446 1448 1454 1460 1456 1466 1443 1425 1426 1419 1421 1410 1407 1409 1412 1419 1429 1433 1443 1450 1457 1464 1470 1478 1484 1487 1491 1496 1499 1502 1502 1502 1503 1504 1506 1507 1509 1511 1512 1513 1513 1514 1514 1513 1513 1511 1511
1444 1445 1447 1451 1453 1460 1457 1466 1445 1436 1430 1429 1423 1415 1406 1404 1409 1420 1429 1436 1443 1450 1457 1463 1470 1477 1483 1487 1492 1496 1497 1498 1498 1500 1502 1502 1503 1505 1507 1508 1510 1511 1511 1512 1511 1510 1511 1510 1510
1446 1457 1476 1478 1469 1464 1440 1452 1443 1440 1436 1432 1430 1429 1418 1412 1421 1427 1433 1441 1448 1454 1461 1465 1471 1476 1481 1486 1489 1494 1496 1497 1498 1499 1499 1501 1502 1503 1504 1506 1507 1509 1509 1510 1510 1506 1507 1508 1509
1442 1450 1476 1481 1478 1456 1443 1449 1443 1438 1438 1435 1434 1436 1432 1432 1436 1440 1446 1449 1453 1457 1462 1466 1470 1473 1478 1484 1486 1489 1490 1494 1496 1497 1498 1500 1502 1502 1502 1504 1506 1506 1508 1508 1508 1507 1506 1506 1507
1433 1446 1447 1454 1454 1463 1455 1443 1440 1437 1440 1440 1440 1440 1443 1445 1446 1451 1454 1455 1457 1460 1462 1466 1471 1475 1478 1480 1483 1485 1487 1489 1492 1493 1495 1498 1499 1500 1502 1500 1503 1503 1506 1506 1505 1506 1504 1506 1506
1429 1433 1464 1468 1473 1475 1453 1447 1452 1442 1444 1447 1447 1446 1448 1451 1453 1456 1458 1459 1461 1462 1464 1468 1472 1474 1475 1478 1480 1482 1485 1488 1490 1493 1493 1495 1496 1497 1498 1498 1500 1500 1502 1502 1504 1503 1502 1502 1502
1437 1446 1445 1456 1468 1470 1468 1464 1447 1448 1448 1450 1452 1453 1453 1453 1456 1457 1458 1460 1462 1462 1464 1467 1470 1471 1472 1474 1476 1480 1483 1485 1488 1489 1492 1493 1494 1495 1495 1496 1496 1498 1499 1500 1502 1501 1501 1498 1498
1437 1447 1450 1462 1462 1461 1464 1461 1446 1446 1448 1452 1454 1455 1456 1455 1457 1459 1460 1460 1458 1458 1461 1464 1466 1468 1469 1471 1472 1477 1481 1483 1485 1486 1489 1491 1493 1491 1493 1493 1495 1495 1496 1498 1497 1498 1498 1495 1497